GEFSMA_con_cape1000_270.txt.gz
Probability
65 55 58 61 55 55 48 48 42 35 39 32 32 19 16 13 16 16 13 35 45 39 35 35 29 26 26 23 16 13 13 16 16 16 23 16 23 26 26 23 16 19 19
68 68 65 58 58 58 65 52 45 39 48 42 35 26 19 13 19 23 19 23 39 42 39 39 29 23 23 16 19 23 16 16 19 19 23 19 16 16 23 23 26 29 26
77 68 68 68 68 61 55 58 45 52 52 42 42 29 23 23 26 26 23 29 23 32 39 35 32 32 19 29 23 23 19 19 23 19 19 19 19 23 26 23 26 26 19
71 74 68 68 68 61 58 61 68 58 52 52 52 42 32 32 32 26 29 32 23 16 19 35 35 35 32 26 26 29 19 19 16 16 16 19 23 16 19 23 16 26 23
65 68 68 71 65 68 58 52 58 65 58 55 48 52 45 42 39 32 29 32 23 23 23 23 32 35 32 26 29 19 16 19 16 23 23 23 13 16 16 16 16 16 13
68 74 74 68 65 68 68 71 68 68 68 65 29 29 42 42 48 42 32 26 23 19 26 23 19 26 35 32 32 29 23 19 19 26 13 16 10 13 13 16 13 10 13
71 81 68 71 74 71 71 61 68 58 61 65 52 45 52 39 39 45 35 26 32 32 29 29 19 16 13 35 39 32 29 29 26 26 19 23 26 23 13 13 10 10 10
74 58 77 71 74 77 74 77 74 74 68 61 52 48 42 35 32 26 32 32 32 39 32 26 35 45 35 16 10 32 32 32 29 23 26 23 23 23 16 13 10 13 13
74 74 74 74 74 74 77 74 71 77 68 68 65 61 55 39 45 45 26 32 32 39 42 32 35 39 35 32 26 10 26 32 26 23 23 19 19 16 13 13 13 16 13
74 74 71 74 74 71 74 71 65 65 68 58 55 68 61 52 32 29 32 32 39 35 32 29 26 35 35 32 29 23 13 16 26 29 23 19 19 19 16 16 13 13 13
65 74 68 65 68 68 68 68 71 74 71 58 55 58 52 55 48 32 32 26 29 32 32 32 32 29 32 32 32 26 6 3 3 10 19 16 13 13 13 3 0 6 6
68 65 58 68 68 65 68 65 68 68 71 65 65 55 52 52 52 39 32 26 26 29 23 26 29 26 26 23 13 10 0 0 0 3 3 6 10 10 6 0 0 0 0
58 61 55 65 71 65 61 61 65 68 68 65 68 65 61 61 55 55 35 32 23 29 26 26 26 26 19 32 16 6 0 0 0 0 0 3 3 3 3 3 3 3 3
58 58 61 65 65 65 58 61 58 61 68 68 65 71 68 61 61 45 39 32 32 26 26 26 26 26 26 16 10 0 0 0 0 0 0 0 0 0 0 0 0 3 3
55 48 52 52 58 61 61 65 65 68 65 68 65 68 71 65 58 48 45 39 26 16 16 16 19 16 16 13 3 6 0 0 0 0 0 0 0 0 0 0 0 0 0
58 55 52 55 65 65 68 68 65 68 68 71 71 68 68 65 58 48 45 45 42 29 19 19 16 16 13 6 3 6 3 0 0 0 0 0 0 0 0 0 0 0 0
55 58 55 55 58 58 58 61 58 61 61 65 65 65 58 55 58 55 48 42 39 35 23 19 13 13 13 10 6 3 0 0 0 0 0 0 0 0 0 0 0 0 0
58 58 55 52 52 55 58 58 58 58 58 65 58 58 55 52 52 48 48 39 42 42 29 26 13 10 10 10 10 3 3 3 0 0 0 0 0 0 0 0 0 0 0
52 55 52 48 55 55 55 58 48 45 52 55 55 48 48 52 52 45 48 45 39 29 29 23 16 13 10 10 10 3 3 3 0 0 0 0 0 0 0 0 0 0 0
55 52 52 48 52 52 55 48 48 45 48 52 52 48 48 42 42 45 39 42 32 26 23 23 16 16 13 13 6 6 3 3 0 0 0 0 0 0 0 0 0 0 0
55 52 52 48 48 45 39 45 45 42 45 52 48 48 45 45 32 29 26 35 29 23 19 19 19 19 13 13 13 6 3 3 0 0 0 0 0 0 0 0 0 0 0
52 52 52 52 48 39 35 29 42 45 45 45 39 39 32 29 16 16 13 10 16 23 19 19 19 16 16 13 13 6 6 3 3 0 0 0 0 0 0 0 0 0 0
52 48 48 48 45 42 32 26 19 39 39 39 42 35 29 29 23 23 13 3 3 6 6 13 19 19 19 16 6 3 6 3 6 0 0 0 0 0 0 0 0 0 0
52 55 48 48 45 42 29 19 10 26 35 35 35 32 29 32 23 26 29 16 23 16 10 3 6 10 16 16 10 10 10 6 3 0 0 0 0 0 0 0 0 0 0
55 55 48 48 48 39 26 16 0 29 29 35 32 29 29 32 23 16 16 23 23 26 3 0 0 0 3 3 6 6 6 3 0 3 0 0 0 0 0 0 0 0 0
55 48 45 48 45 42 32 13 0 29 29 29 29 26 23 19 13 6 13 26 23 26 13 3 0 0 0 0 0 3 6 3 3 0 3 0 0 0 0 0 0 0 0

GEFSMA_con_cape1000_276.txt.gz
Probability
3 0 0 0 3 3 6 3 6 6 6 3 3 3 3 3 3 0 0 35 45 45 39 42 39 35 32 29 35 35 32 26 23 32 26 23 26 23 23 16 16 10 10
3 0 0 3 3 0 6 6 10 10 3 3 3 0 0 0 0 3 3 19 39 42 42 42 39 35 32 29 29 32 23 23 29 29 26 35 32 26 29 26 23 26 23
3 0 0 3 6 3 6 10 10 6 6 3 3 0 0 0 3 3 6 10 19 35 42 42 42 42 42 45 35 35 29 26 23 32 29 29 23 26 26 26 19 19 23
6 3 3 10 6 6 10 6 6 6 6 0 3 3 3 3 3 3 3 3 6 10 26 42 42 39 39 42 39 32 35 23 23 16 16 32 16 23 23 19 19 16 16
10 10 6 10 13 10 10 6 6 6 6 3 0 3 3 3 6 6 3 3 3 6 6 23 39 39 42 35 32 29 32 23 23 19 13 10 16 26 23 10 19 19 10
16 13 13 10 13 6 6 3 3 6 6 3 3 3 3 6 0 3 3 3 3 3 3 13 19 29 42 39 39 32 35 32 26 19 13 16 19 23 19 16 13 13 10
16 13 16 13 13 6 6 6 10 6 6 3 0 3 3 3 0 0 0 3 3 3 3 6 6 6 13 42 39 35 42 32 35 26 19 23 19 23 16 13 6 6 6
19 19 13 13 10 10 10 3 6 6 6 3 3 0 3 3 3 3 0 0 3 3 3 6 6 3 6 10 13 32 39 32 29 32 29 23 16 16 13 13 10 10 10
19 16 19 19 19 13 16 10 13 10 6 3 3 3 0 0 3 0 0 0 3 3 3 3 3 3 0 3 6 10 29 29 32 32 29 26 16 16 13 10 13 13 10
19 19 16 23 23 19 23 23 19 16 10 10 6 3 3 0 3 3 0 0 0 3 3 3 3 3 3 3 0 3 3 10 19 23 32 19 16 13 10 6 10 6 0
19 23 26 19 13 13 16 19 26 23 19 13 13 10 10 3 0 3 3 0 3 0 0 0 0 3 3 0 0 3 6 3 3 13 10 6 10 6 3 3 0 0 0
19 23 23 19 19 23 23 26 29 26 23 19 19 16 13 10 6 0 0 0 3 3 3 0 0 3 3 0 3 3 0 0 0 0 3 3 6 6 0 0 0 0 0
26 26 23 23 23 26 26 26 29 32 23 26 19 26 13 16 16 10 6 6 6 6 6 6 3 6 6 3 0 3 3 0 0 0 0 0 3 3 0 0 3 6 0
23 23 26 26 29 29 32 26 29 32 29 29 29 29 29 26 19 13 13 10 10 6 6 6 10 10 3 0 0 0 0 0 0 0 0 0 0 0 0 0 0 0 0
23 19 16 23 29 32 29 29 29 32 32 29 29 29 29 23 26 23 16 10 10 10 10 6 6 3 0 0 0 0 0 0 0 0 0 0 0 0 0 0 0 0 0
29 23 26 23 26 29 29 29 29 29 29 26 26 26 29 23 26 23 16 13 10 10 10 6 6 10 3 0 0 0 0 0 0 0 0 0 0 0 0 0 0 0 0
29 29 29 32 32 32 32 32 29 29 32 32 26 26 19 26 23 19 16 13 13 10 10 10 6 3 0 0 0 0 0 0 0 0 0 0 0 0 0 0 0 0 0
29 32 29 35 35 35 35 32 32 35 35 35 26 23 23 26 19 16 19 13 6 6 10 6 6 3 0 0 0 0 0 0 0 0 0 0 0 0 0 0 0 0 0
42 42 39 39 35 35 35 39 35 35 35 35 29 23 19 19 19 19 16 16 6 6 3 6 6 3 0 0 0 0 0 0 0 0 0 0 0 0 0 0 0 0 0
45 45 45 39 35 35 32 32 35 39 39 35 29 26 19 19 19 19 19 13 10 6 6 3 6 3 0 0 0 0 0 0 0 0 0 0 0 0 0 0 0 0 0
39 39 39 35 32 32 32 32 29 26 26 26 29 23 19 19 19 19 16 16 10 6 6 6 3 3 0 0 0 0 0 0 0 0 0 0 0 0 0 0 0 0 0
32 35 32 35 35 35 35 29 29 26 26 26 23 23 19 19 16 13 13 13 10 13 6 6 3 3 0 0 0 0 0 0 0 0 0 0 0 0 0 0 0 0 0
29 32 32 32 32 32 29 23 19 23 23 29 26 19 19 19 16 10 10 6 10 10 10 10 10 3 0 0 0 0 0 0 0 0 0 0 0 0 0 0 0 0 0
29 29 23 26 29 29 29 16 13 19 19 16 19 23 19 16 13 13 13 10 3 3 0 0 0 0 0 0 0 0 0 0 0 0 0 0 0 0 0 0 0 0 0
26 29 29 26 29 26 23 13 10 19 16 16 16 23 19 16 13 3 10 6 6 6 3 0 0 0 0 0 0 0 0 0 0 0 0 0 0 0 0 0 0 0 0
19 26 26 26 26 23 23 10 6 19 19 19 23 13 16 16 16 6 3 3 3 3 3 3 0 0 0 0 0 0 0 0 0 0 0 0 0 0 0 0 0 0 0

GEFSMA_con_cape1000_282.txt.gz
Probability
0 0 0 0 0 0 3 3 6 3 3 3 3 3 3 3 3 3 6 13 32 32 26 29 26 29 26 29 29 19 26 23 16 32 26 23 23 23 19 13 13 13 10
0 0 0 0 0 0 3 3 6 3 3 3 3 3 3 0 0 3 3 10 23 32 32 32 35 26 35 35 32 32 29 29 32 29 29 29 26 19 23 13 16 16 19
0 0 0 0 0 0 3 3 6 3 3 3 3 3 0 0 3 3 3 6 16 26 35 32 42 42 39 32 29 39 35 29 32 29 23 26 23 26 19 19 19 23 23
0 0 0 0 3 3 3 6 6 3 3 3 3 3 3 3 3 3 3 6 10 10 26 29 35 39 39 35 39 35 39 35 23 23 19 16 16 23 23 13 10 16 13
3 0 0 3 3 3 6 6 3 3 3 3 3 3 3 6 3 3 3 3 6 10 10 16 29 39 32 29 32 32 35 39 26 23 19 16 19 19 23 13 10 16 16
6 3 3 0 0 3 6 0 3 3 3 3 3 3 3 3 3 3 3 3 3 3 6 13 19 19 29 32 29 26 26 23 26 23 26 19 10 13 19 16 10 10 6
10 6 10 3 0 0 3 0 3 3 3 3 3 3 0 3 3 3 3 3 3 3 3 13 13 10 13 19 29 29 29 29 23 26 23 16 10 16 16 16 10 13 10
10 10 6 6 3 6 6 3 6 3 3 3 3 3 3 3 0 3 0 3 3 3 3 6 6 10 10 13 10 16 19 26 26 26 19 19 16 13 13 10 10 6 6
10 13 13 6 6 3 6 6 10 10 6 3 3 3 3 3 0 0 3 3 10 10 6 10 6 3 6 3 10 13 16 16 16 26 23 26 19 6 6 6 6 16 6
10 13 16 10 10 13 10 13 16 13 13 10 6 3 3 3 10 10 3 3 3 3 6 3 10 3 3 6 3 3 6 10 10 13 16 16 16 10 3 0 3 6 3
10 10 16 10 13 13 10 6 13 10 10 10 10 6 6 6 3 6 6 6 3 3 3 3 6 0 0 3 6 6 3 6 3 3 6 10 13 10 3 0 0 6 3
6 6 10 10 10 10 10 6 10 13 13 10 13 10 10 10 13 3 10 6 6 10 6 6 3 0 0 3 3 3 10 0 0 0 3 3 6 6 6 3 3 0 0
10 10 16 13 16 16 16 16 16 26 16 19 23 23 23 19 13 10 13 10 3 6 10 10 6 3 3 6 10 3 3 0 0 0 0 0 0 0 0 3 3 0 0
13 13 13 13 19 23 23 23 26 26 29 26 29 29 29 29 16 16 13 13 10 10 10 13 10 3 3 3 3 0 3 0 0 0 0 0 0 0 0 0 0 0 0
13 13 13 19 23 26 26 23 29 32 26 29 29 29 29 29 19 19 16 16 10 10 10 6 10 6 3 3 0 0 0 0 0 0 0 0 0 0 0 0 0 0 0
13 19 13 16 23 23 23 26 29 29 32 29 29 23 26 29 26 19 19 19 13 13 10 10 10 6 3 3 0 0 0 0 0 0 0 0 0 0 0 0 0 0 0
13 13 13 16 19 23 13 19 19 23 26 26 29 29 26 19 23 23 19 19 13 3 10 6 6 3 3 3 0 0 0 0 0 0 0 0 0 0 0 0 0 0 0
19 10 10 10 10 16 13 16 19 23 26 26 29 26 26 19 19 19 23 19 19 6 10 10 6 3 0 3 0 0 0 0 0 0 0 0 0 0 0 0 0 0 0
26 16 16 13 16 23 13 16 16 23 19 23 26 26 26 23 19 19 23 23 23 13 10 6 3 3 0 0 0 0 0 0 0 0 0 0 0 0 0 0 0 0 0
23 23 23 26 29 26 19 19 23 23 26 26 26 26 26 19 19 23 19 19 19 13 6 3 6 3 0 0 0 0 0 0 0 0 0 0 0 0 0 0 0 0 0
29 26 26 29 26 26 26 26 26 23 23 23 26 26 26 23 16 16 13 16 13 13 13 6 6 3 0 0 0 3 0 0 0 0 0 0 0 0 0 0 0 0 0
26 26 26 26 26 26 23 19 23 23 26 26 26 26 23 23 16 10 10 6 13 13 13 13 13 13 10 0 3 3 0 0 0 0 0 0 0 0 0 0 0 0 0
26 26 26 23 23 23 19 6 6 19 23 26 26 26 23 19 10 16 10 10 6 6 6 13 13 13 10 3 0 3 0 0 0 0 0 0 0 0 0 0 0 0 0
19 23 23 23 26 23 13 6 6 6 19 23 23 19 19 19 13 13 13 10 10 10 10 13 13 10 10 6 3 3 3 0 0 0 0 0 0 0 0 0 0 0 0
13 13 16 16 19 19 13 6 3 10 16 19 19 23 19 19 10 0 6 6 10 6 3 3 3 6 0 0 0 0 0 0 0 0 0 0 0 0 0 0 0 0 0
10 10 10 13 16 13 10 10 6 10 16 16 16 16 10 10 6 0 3 10 10 10 10 3 3 3 3 0 0 0 3 3 3 0 0 0 0 0 0 0 0 0 0

GEFSMA_con_cape1000_288.txt.gz
Probability
42 39 55 35 32 32 29 35 32 29 32 26 16 13 13 10 6 6 19 19 23 19 29 29 23 26 26 26 13 13 19 29 32 29 29 26 23 19 13 16 16 16 13
45 42 42 45 35 32 32 35 39 35 19 19 13 10 13 3 10 10 13 19 19 19 23 29 29 26 35 32 13 23 19 23 26 29 35 32 23 10 10 10 16 16 16
45 39 42 42 39 42 35 39 29 29 26 16 16 13 13 13 6 6 13 16 16 23 23 23 29 29 29 32 26 26 26 29 29 23 26 26 26 16 13 13 13 16 26
52 52 52 42 48 39 35 35 35 26 29 29 19 19 19 32 23 16 19 19 23 19 26 29 23 26 32 29 29 32 35 32 32 23 23 19 16 19 16 16 16 23 23
52 45 55 48 45 39 42 32 32 29 35 29 16 29 19 26 26 19 19 19 26 29 29 35 23 26 26 29 29 29 26 32 29 23 23 19 23 16 16 16 13 16 23
55 48 45 58 39 35 48 48 48 52 48 35 16 23 23 23 26 26 26 26 26 26 26 26 29 32 35 29 29 29 32 32 32 23 26 19 13 13 16 16 16 10 10
58 55 35 52 55 35 48 45 48 48 48 32 26 29 26 26 26 26 26 26 26 26 26 29 32 23 32 32 23 29 29 32 35 26 26 16 16 16 16 13 10 6 6
52 35 58 52 48 58 55 48 48 45 35 39 35 35 32 26 29 16 26 29 26 29 26 23 29 39 32 35 26 29 29 29 26 26 32 29 23 19 13 10 10 13 10
39 52 48 48 55 42 52 55 52 45 45 39 35 42 42 23 19 19 23 26 32 29 32 29 32 35 35 32 39 19 19 26 23 29 26 23 26 13 10 10 6 10 6
45 45 45 48 48 42 58 42 45 48 45 39 45 48 45 48 42 23 19 23 29 32 29 29 29 32 35 39 35 19 16 13 16 16 23 19 19 16 13 6 13 13 10
58 48 55 55 55 48 52 55 55 52 45 48 48 48 52 55 42 39 35 32 29 26 26 35 32 32 39 42 35 35 16 6 6 13 10 13 10 10 10 10 13 16 13
65 58 58 61 58 52 58 61 61 58 61 61 58 45 48 45 45 42 39 42 39 26 29 39 35 39 39 32 29 19 13 6 0 0 3 6 3 3 3 3 10 13 16
58 65 65 68 68 65 65 65 68 65 65 61 61 58 45 48 55 48 48 39 35 29 29 26 32 29 23 23 29 10 13 0 0 0 0 0 3 3 3 3 0 6 3
48 58 61 58 61 65 58 68 61 55 58 55 55 61 61 45 55 48 45 42 26 19 23 19 26 26 29 23 23 3 23 3 0 0 0 0 0 0 0 0 0 0 0
55 55 52 52 55 61 58 61 61 55 52 52 48 48 48 42 45 42 39 42 39 29 19 26 26 23 29 29 10 19 26 6 0 0 0 0 0 0 0 0 0 0 0
61 58 52 48 52 52 52 52 48 52 55 55 52 52 55 48 48 48 42 48 42 35 32 19 26 19 29 13 6 23 26 3 0 0 0 0 0 0 0 0 0 0 0
55 52 48 48 45 48 48 48 45 42 48 52 52 48 55 52 52 48 42 42 45 42 35 42 23 29 32 29 19 29 29 23 16 0 0 0 0 0 0 0 0 0 0
52 52 48 52 48 45 52 48 45 45 42 42 48 52 52 48 52 52 58 52 45 48 35 42 35 26 35 26 23 26 13 10 10 0 0 0 0 0 0 0 0 0 0
48 48 48 48 48 45 45 48 52 45 45 45 48 48 45 45 45 48 48 48 48 39 39 35 35 35 23 23 23 23 16 23 10 3 0 0 0 0 0 0 0 0 0
48 48 48 48 48 48 48 42 42 48 45 42 42 42 45 42 39 42 42 48 45 45 42 45 39 26 26 19 19 19 19 23 10 3 0 0 0 0 0 0 0 0 0
39 45 45 45 45 42 35 42 42 45 45 42 45 45 42 35 32 29 26 39 42 42 42 42 35 26 23 16 13 13 10 19 13 10 10 6 3 3 3 0 0 0 0
39 45 45 42 39 35 32 29 35 42 39 45 45 48 39 39 32 23 16 13 23 35 39 35 35 32 39 29 26 19 16 13 10 10 10 6 3 6 6 3 0 0 0
35 45 42 45 42 35 26 16 6 32 39 35 42 39 29 26 29 29 26 10 13 3 13 39 29 35 42 35 35 16 19 16 10 6 6 10 6 6 10 3 0 0 0
32 35 35 35 39 32 16 10 3 29 35 35 32 32 26 29 26 26 26 29 29 29 13 16 39 39 32 29 29 26 26 19 16 16 6 6 10 10 0 6 0 0 0
35 35 35 35 35 29 13 10 3 32 35 32 26 26 26 23 19 19 19 29 29 26 10 3 6 10 10 10 10 10 16 10 10 10 10 6 6 3 6 6 0 0 0
35 32 26 23 29 32 19 6 0 23 29 29 26 23 19 19 16 6 19 19 23 26 23 23 6 3 3 3 0 6 10 6 10 10 10 13 13 10 6 6 3 0 0

GEFSMA_con_cape1000_294.txt.gz
Probability
65 58 65 61 52 52 48 48 48 39 39 32 29 19 19 19 19 19 16 23 19 23 26 32 23 19 29 26 26 26 23 23 29 35 35 19 23 19 16 16 19 26 19
68 55 61 61 58 58 55 52 42 39 39 39 35 29 26 19 19 19 16 13 19 29 26 26 26 16 16 32 32 26 26 26 29 32 32 26 26 23 23 26 23 19 23
61 58 55 55 52 48 48 55 45 48 48 42 39 32 32 29 23 23 19 16 13 26 26 26 29 29 29 29 35 29 29 32 32 32 32 29 26 19 23 23 23 16 16
65 58 52 45 52 45 48 52 52 52 42 45 39 39 39 39 26 26 23 26 29 16 19 29 32 29 32 35 35 35 39 39 39 39 29 23 16 19 16 16 13 16 19
65 61 61 55 58 52 48 45 52 52 42 42 39 42 35 45 39 26 29 29 32 32 23 26 42 39 35 39 35 35 35 42 42 39 32 29 23 23 19 16 10 10 16
58 61 61 61 58 55 52 55 52 52 52 42 29 26 35 35 39 32 29 29 32 32 29 29 32 32 39 42 42 39 42 42 35 35 35 32 29 19 26 13 10 13 13
58 61 61 58 58 58 55 52 52 48 45 45 42 35 35 32 35 39 29 29 29 29 29 32 35 35 35 32 32 39 39 39 42 39 35 23 23 19 19 16 13 10 10
55 52 61 61 61 61 61 55 55 52 48 48 45 42 39 39 35 26 29 29 29 29 26 26 26 39 35 29 23 32 35 39 39 35 32 29 23 23 13 13 13 13 13
55 58 61 58 61 61 58 61 65 52 52 55 55 58 45 42 42 42 32 29 29 32 29 29 29 35 35 32 29 23 35 35 39 39 35 29 29 19 13 13 16 10 13
55 58 61 61 65 61 68 68 65 65 68 58 61 61 61 55 45 42 39 35 32 32 35 29 32 39 39 35 32 26 29 26 29 29 35 29 26 16 16 16 16 19 16
61 61 61 65 65 68 68 68 68 68 68 68 68 61 52 52 52 42 35 35 42 39 29 35 35 42 39 35 32 26 23 16 16 26 29 29 23 13 13 13 16 13 13
68 65 65 68 68 65 65 68 68 68 68 71 68 65 58 55 52 48 45 42 39 39 35 39 39 42 35 32 29 26 19 10 6 6 10 10 13 13 10 13 13 10 10
68 68 65 65 68 68 68 65 71 71 68 71 68 65 65 61 58 52 48 45 35 39 39 32 39 29 23 26 29 26 19 10 3 0 3 6 6 13 13 13 10 6 6
68 68 68 68 68 61 61 68 68 61 65 68 61 71 68 65 58 52 48 48 42 39 39 39 32 29 23 26 23 6 23 3 0 0 0 0 0 3 3 0 3 3 6
65 65 61 61 61 65 68 71 65 68 68 68 61 68 71 65 58 52 52 48 42 32 35 39 32 32 32 32 19 19 32 6 0 0 0 0 0 0 0 0 0 0 0
65 61 61 65 65 65 68 71 68 65 65 58 61 65 65 61 61 55 55 48 45 35 39 42 42 32 29 16 13 23 26 10 0 0 0 0 0 0 0 0 0 0 0
65 65 68 65 55 61 58 55 55 55 55 55 48 48 48 55 48 48 52 48 45 42 35 39 35 35 39 32 19 32 29 23 13 0 0 0 0 0 0 0 0 0 0
55 52 52 55 55 48 55 52 52 45 52 48 45 45 48 42 45 48 48 55 52 45 45 39 35 35 39 35 35 32 23 16 16 3 0 0 0 0 0 0 0 0 0
55 55 55 55 52 52 45 39 39 42 45 48 45 48 48 48 45 42 45 42 42 39 42 39 32 32 32 35 32 26 23 19 13 3 3 0 0 0 0 0 0 0 0
58 58 58 52 55 48 45 45 39 39 45 45 52 52 52 52 48 45 45 45 45 42 42 42 35 32 29 29 26 23 19 16 13 6 3 3 0 0 0 0 0 0 0
45 52 55 52 45 45 42 39 39 29 39 42 39 45 39 42 29 26 26 32 32 39 32 39 35 32 29 23 19 26 13 13 16 13 10 6 3 0 0 0 0 0 0
52 48 45 45 42 35 23 23 26 35 29 42 39 35 32 35 26 23 23 19 19 23 29 32 23 29 29 23 23 16 16 13 10 13 13 6 6 10 6 3 0 0 0
45 45 45 39 39 32 19 16 16 26 29 35 32 39 32 29 26 29 23 19 16 10 13 26 29 29 23 23 26 23 13 16 16 16 10 3 3 6 10 3 0 0 0
42 45 42 42 32 29 16 10 10 23 32 39 32 32 35 32 26 23 23 19 19 16 13 16 26 26 16 19 16 16 16 13 23 13 6 3 3 6 6 6 6 0 0
48 45 48 42 35 32 19 13 3 23 32 35 39 26 26 26 23 13 19 23 19 19 6 6 3 6 6 6 10 10 10 10 6 3 3 3 3 3 6 10 3 0 0
48 45 42 39 39 39 23 13 3 19 29 35 39 32 19 16 16 13 16 29 19 26 16 13 6 3 3 6 6 13 13 13 6 3 3 3 3 3 3 6 3 3 0

GEFSMA_con_cape1000_300.txt.gz
Probability
0 6 10 6 3 10 10 6 10 13 10 10 6 6 6 6 6 6 6 23 29 32 29 32 29 29 29 35 39 26 35 35 39 39 32 32 32 29 26 23 19 16 19
3 10 6 10 6 3 6 3 13 6 6 6 6 6 6 6 6 6 6 16 35 32 39 29 35 29 32 32 35 39 39 35 39 35 32 32 32 29 32 26 26 19 16
3 3 6 6 13 10 13 10 13 6 6 6 3 6 3 3 3 3 3 6 10 29 35 35 32 45 48 42 32 42 42 35 32 29 32 35 35 32 26 29 26 26 29
3 3 6 3 13 10 13 13 13 10 10 6 6 6 6 3 3 3 3 6 6 10 16 29 35 42 45 35 35 39 42 35 35 35 35 35 32 29 26 26 23 23 23
13 10 13 13 13 6 10 16 13 13 6 10 10 10 6 6 10 6 6 3 6 6 6 13 35 39 39 39 39 39 42 45 35 35 29 29 26 26 23 26 23 23 19
16 10 10 10 16 13 13 10 13 16 13 13 19 16 13 6 6 6 10 6 6 6 6 6 16 32 39 39 42 39 45 48 39 42 32 32 32 26 19 16 13 16 10
16 19 23 19 16 16 16 13 13 16 13 16 19 13 10 10 10 10 16 16 16 13 13 13 13 10 19 35 35 42 45 48 45 35 35 32 32 26 19 16 16 16 16
19 19 19 19 19 16 13 16 19 16 23 16 13 10 6 3 3 6 6 10 16 19 19 23 16 13 10 13 26 39 45 42 45 35 32 29 26 26 19 16 16 16 16
23 16 16 19 23 23 23 19 19 23 23 23 13 13 13 3 3 3 6 6 10 10 10 10 10 16 13 10 16 23 32 35 42 39 39 32 29 29 29 26 16 10 10
26 29 26 19 23 26 19 16 19 19 26 23 19 19 16 3 6 6 0 0 6 6 10 10 10 13 13 13 13 10 23 32 35 39 32 35 35 32 29 23 19 16 10
39 32 29 26 26 19 23 23 19 26 23 23 23 19 16 16 3 6 6 3 3 6 3 10 10 10 6 6 6 13 16 16 19 26 26 26 26 26 19 16 16 13 16
32 32 23 23 32 29 23 26 29 29 29 32 26 23 26 19 10 3 3 3 3 6 6 6 10 10 13 10 10 23 19 13 6 10 13 16 19 16 16 10 10 13 10
26 26 32 29 29 26 26 19 23 23 29 29 29 29 26 23 16 6 6 6 6 10 3 3 6 6 6 6 6 16 16 6 3 3 3 10 10 10 10 10 13 10 13
26 26 29 26 26 26 29 29 23 23 23 26 26 29 26 23 19 16 13 13 10 3 10 6 3 3 6 6 6 10 10 6 3 3 3 3 3 6 3 3 6 6 6
23 23 29 29 26 26 23 19 26 23 19 26 23 23 26 29 26 19 13 10 10 13 16 6 3 3 3 6 10 6 0 0 3 0 0 0 0 0 0 0 0 3 3
19 16 19 29 29 29 29 32 32 29 29 26 23 23 26 29 26 23 13 13 10 10 16 10 10 6 3 6 6 3 0 3 3 3 0 0 0 0 0 0 0 0 0
26 26 23 23 23 23 23 26 26 32 29 29 29 29 26 26 26 23 16 10 10 13 13 13 6 3 3 3 3 3 0 3 6 6 0 0 0 0 0 0 0 0 0
23 26 26 26 19 26 26 26 26 26 26 29 29 26 29 29 26 26 23 23 19 13 13 13 10 3 3 3 3 3 3 3 3 3 0 0 0 0 0 0 0 0 0
23 26 32 29 29 29 26 26 26 26 26 26 26 23 23 19 23 23 23 23 23 23 19 13 13 6 3 3 3 3 3 3 3 3 3 0 0 0 0 0 0 0 0
29 29 26 29 29 26 23 26 19 19 23 23 19 19 19 19 19 23 23 23 23 19 19 16 16 10 3 3 3 3 3 3 3 3 0 0 0 0 0 0 0 0 0
35 32 29 29 23 23 23 23 23 26 23 19 19 23 19 19 19 16 19 16 19 23 19 19 10 3 0 0 0 3 3 3 3 3 0 0 0 0 0 0 0 0 0
29 26 23 23 23 23 23 19 23 23 19 19 16 16 16 19 19 13 16 16 13 13 13 16 10 10 0 0 0 3 3 3 0 3 3 0 0 0 0 0 0 0 0
26 26 23 19 19 13 16 13 13 16 16 16 16 19 19 19 16 16 10 6 6 6 10 13 13 6 6 0 0 0 0 0 0 3 3 3 3 0 0 0 0 0 0
19 23 23 23 16 16 16 10 10 10 13 16 16 16 16 13 16 13 13 13 13 10 6 6 10 3 6 3 0 0 0 0 0 0 0 3 3 3 3 0 0 0 0
23 26 23 16 16 16 16 13 6 13 13 13 10 13 13 13 13 10 13 13 13 13 10 3 3 3 3 0 3 0 0 0 0 0 0 0 0 0 0 0 0 0 0
19 16 13 13 13 13 13 6 0 13 13 13 13 13 6 10 10 6 10 10 13 16 13 10 6 0 0 0 0 3 0 0 0 0 0 0 0 0 0 0 0 0 0

GEFSMA_con_cape1000_306.txt.gz
Probability
0 0 3 3 3 3 6 10 6 13 16 13 6 10 10 10 6 3 6 19 26 26 29 35 39 39 32 35 26 35 29 23 26 23 32 29 26 26 26 23 23 23 23
0 3 3 3 3 3 6 3 6 13 13 6 6 6 10 10 10 10 13 16 26 29 32 32 35 32 32 32 32 29 32 26 29 32 26 26 32 32 29 29 23 23 29
0 0 0 0 3 3 3 6 6 6 6 3 3 6 6 6 10 10 10 10 13 19 32 35 39 35 35 35 39 42 42 32 32 29 26 29 32 29 29 32 32 39 23
0 0 0 3 3 3 3 6 6 6 6 6 6 10 10 10 10 10 6 10 10 6 10 29 39 42 35 39 45 39 42 42 42 35 26 23 19 23 23 23 29 32 26
6 3 3 3 6 6 6 6 10 6 10 10 13 16 10 10 10 10 10 10 6 10 6 10 26 39 39 39 42 42 39 42 39 35 29 29 23 23 23 19 23 23 19
6 3 10 6 6 10 10 10 10 6 10 16 16 16 16 13 10 10 10 13 10 13 6 10 10 23 32 42 39 42 42 45 39 39 35 32 26 26 23 19 19 19 16
13 10 10 6 6 10 10 13 6 10 13 13 16 16 13 10 13 13 13 13 16 16 13 13 13 16 23 29 39 42 42 45 35 39 35 32 29 29 29 26 19 16 16
13 16 6 10 10 10 10 10 10 10 10 13 13 19 10 13 6 6 10 6 10 10 13 13 16 19 23 26 19 32 45 39 32 29 35 35 35 29 29 29 19 13 13
13 13 13 13 13 13 13 10 13 13 13 10 10 19 23 19 3 10 6 3 10 10 13 13 13 16 16 16 23 19 29 32 29 32 35 35 35 35 26 23 19 13 6
13 16 13 13 13 13 10 13 13 16 13 19 16 10 16 16 19 19 10 3 3 3 6 10 10 10 10 13 10 10 16 23 23 26 32 35 35 32 23 23 19 13 10
6 13 10 10 10 13 13 13 13 13 19 19 19 19 19 16 13 19 19 13 6 3 6 10 10 6 13 13 13 6 10 6 13 19 23 29 32 29 26 26 23 16 13
13 16 16 16 16 13 13 13 13 13 13 13 16 13 16 23 6 10 13 16 13 13 10 6 3 3 6 13 10 6 13 6 6 6 16 16 23 26 26 23 19 23 16
16 16 16 16 16 16 16 16 13 19 19 16 19 19 23 23 16 13 13 13 6 13 10 3 3 3 3 13 16 6 6 6 3 3 3 6 16 13 10 13 13 13 13
16 10 10 10 10 10 10 13 16 16 16 16 19 23 23 19 13 13 10 13 16 13 16 13 3 6 6 13 3 0 6 6 3 0 0 0 3 6 6 10 10 10 3
13 13 10 10 10 13 13 10 26 19 23 19 19 19 23 19 16 13 13 13 16 16 19 13 13 10 6 3 3 3 6 3 3 0 0 0 0 0 0 0 0 0 0
13 16 13 13 16 16 19 19 19 23 23 23 19 19 23 19 19 16 13 13 13 13 19 16 16 10 6 3 3 3 3 3 3 0 0 0 0 0 0 0 0 0 0
16 16 16 16 19 19 19 19 23 19 19 19 23 19 19 19 19 16 13 10 10 10 10 16 13 13 6 6 6 3 3 3 3 3 0 0 0 0 0 0 0 0 0
13 16 19 23 23 23 23 23 26 23 23 23 16 16 16 16 19 16 16 19 19 13 13 19 19 16 13 13 10 6 3 3 3 3 3 0 0 0 0 0 0 0 0
13 16 23 26 26 23 23 16 19 16 16 16 19 19 16 19 19 19 16 13 13 13 16 19 19 16 13 6 10 3 3 3 3 3 3 3 0 0 0 0 0 0 0
13 16 19 19 26 23 16 16 19 19 19 19 16 16 19 19 19 19 16 16 16 16 16 16 19 19 16 3 3 3 3 3 0 3 3 0 0 0 0 0 0 0 0
23 19 19 16 16 16 13 19 23 23 23 23 19 19 19 19 19 19 16 16 16 16 16 16 13 13 10 3 3 3 3 3 0 0 3 3 3 3 0 0 0 0 0
16 19 19 19 19 19 13 10 16 19 19 19 19 19 19 19 19 13 3 3 10 13 13 13 13 13 10 10 3 3 3 3 0 0 3 3 3 3 3 0 0 0 0
16 16 19 19 23 23 13 6 6 13 19 19 19 19 19 19 16 13 10 6 6 3 6 10 10 10 13 10 6 3 3 0 0 0 0 0 0 0 0 0 0 0 0
16 16 13 16 19 23 13 6 6 6 13 19 16 19 19 13 13 13 10 10 10 10 6 6 10 10 13 13 10 10 6 0 0 0 0 0 0 0 0 0 0 0 0
16 16 19 16 16 16 10 6 0 10 10 13 16 13 13 13 10 3 6 6 13 13 10 6 6 6 6 6 6 6 0 0 3 0 0 0 0 0 0 0 0 0 0
13 13 10 13 13 13 10 3 0 6 10 13 13 13 10 6 3 3 3 6 10 10 10 10 6 3 3 3 0 0 10 6 3 3 3 0 0 0 0 0 0 0 0

GEFSMA_con_cape1000_312.txt.gz
Probability
39 39 58 58 42 42 52 48 39 42 39 32 35 39 35 39 39 35 45 32 32 29 29 26 32 32 35 23 26 19 23 23 23 23 29 26 23 26 26 19 26 19 19
42 42 45 52 39 52 52 48 29 45 39 39 39 35 39 39 42 32 29 35 29 29 32 32 32 35 39 39 42 32 32 29 29 29 29 23 23 29 26 29 29 26 19
45 52 39 42 48 45 55 58 39 42 39 39 42 39 39 39 35 35 35 39 32 32 35 35 32 32 39 32 35 39 35 35 39 35 29 19 23 26 23 26 29 29 29
52 52 52 52 48 48 39 45 39 42 52 45 45 45 42 42 39 42 42 39 35 29 32 39 39 35 39 32 32 39 39 39 39 42 29 26 19 19 19 26 23 26 26
48 48 45 55 52 39 32 35 39 48 48 48 35 39 39 39 45 39 39 29 26 32 35 35 42 39 39 29 39 42 45 42 39 35 32 32 29 29 26 23 26 26 26
45 48 48 52 42 35 45 48 58 48 48 52 29 29 39 39 45 48 35 29 29 26 29 32 35 35 39 42 35 35 35 42 39 35 32 32 32 35 26 23 23 23 23
48 45 39 48 48 45 42 39 42 42 42 45 35 29 29 35 42 52 42 35 32 32 32 35 35 35 39 35 35 39 42 32 32 32 29 32 32 32 32 29 26 26 19
45 35 45 35 39 45 45 45 48 45 39 39 39 26 26 26 35 19 45 42 29 29 32 29 39 42 39 39 35 35 42 32 35 35 29 32 32 32 32 32 29 29 19
39 45 42 39 42 35 35 45 45 45 35 42 42 39 26 16 26 23 26 26 32 39 35 32 35 39 42 39 39 32 39 35 29 32 29 32 35 32 29 29 26 26 23
39 39 42 42 45 35 48 39 39 35 45 39 45 52 48 45 35 23 19 26 35 39 35 32 32 35 42 42 42 23 19 16 23 23 26 35 29 29 26 26 29 23 23
45 39 45 45 48 42 42 42 39 42 39 42 42 42 42 55 39 29 23 29 32 32 26 29 32 35 35 35 45 39 16 6 6 13 16 19 32 29 29 23 23 23 26
48 39 39 48 48 45 45 52 48 48 52 48 45 42 45 42 42 32 29 35 29 26 29 35 29 32 29 32 35 13 10 3 3 6 6 10 16 26 26 23 23 26 26
35 52 45 48 48 48 48 45 52 52 52 52 52 48 45 48 45 39 32 29 29 26 29 32 29 26 26 32 42 16 10 6 3 3 6 6 6 19 19 16 19 19 19
39 48 39 48 52 45 39 52 45 39 48 52 52 52 52 45 48 45 42 35 35 39 32 26 29 32 29 32 26 6 29 10 3 3 0 6 3 3 3 10 16 10 13
32 32 32 42 45 52 55 55 48 52 48 48 45 48 52 52 52 45 42 39 35 35 26 26 26 32 32 32 23 29 35 13 6 3 0 0 0 0 0 0 3 3 3
39 42 42 42 45 45 45 48 42 48 45 45 45 42 45 45 48 48 45 45 42 35 39 32 35 26 35 23 19 32 29 16 6 3 0 0 0 0 0 0 0 0 0
35 35 32 35 39 42 42 45 39 39 39 42 35 35 39 45 39 39 39 39 39 35 29 29 35 26 29 35 29 29 26 26 23 6 3 0 0 0 0 0 0 0 0
35 35 35 32 29 29 35 35 35 35 35 29 29 32 29 29 32 35 35 35 35 35 29 29 35 35 32 32 26 29 23 19 19 10 6 0 0 0 0 0 0 0 0
32 32 32 32 29 29 29 39 35 32 32 32 35 35 35 35 32 35 39 32 29 26 29 26 26 42 26 26 29 23 19 26 10 10 3 0 0 0 0 0 0 0 0
39 35 35 35 32 32 29 29 35 35 35 35 35 39 39 32 32 29 29 35 32 23 23 26 29 26 32 26 32 23 16 23 16 13 10 6 0 0 0 0 0 0 0
35 35 32 35 35 29 29 29 32 29 32 32 32 29 29 29 29 26 23 29 32 32 26 23 23 26 23 29 16 16 16 16 19 16 16 19 13 6 3 0 0 0 0
42 42 35 35 32 29 16 13 19 23 29 39 35 29 29 29 23 19 16 16 19 16 29 29 19 26 32 23 26 19 16 16 13 13 19 19 23 23 16 13 0 0 0
42 45 42 39 35 32 23 16 6 19 19 26 29 32 26 19 19 23 19 13 10 10 10 19 23 26 32 23 23 13 19 16 19 23 23 19 19 19 16 6 0 0 0
39 42 42 35 35 32 19 10 3 16 23 26 26 26 26 29 23 23 23 23 23 23 19 16 19 26 26 29 32 23 26 26 26 29 16 19 19 19 13 10 0 0 0
35 39 35 35 35 29 23 6 0 26 26 26 26 23 26 23 23 16 23 23 26 23 16 10 6 13 13 6 13 19 19 23 16 23 19 13 19 23 16 10 3 0 0
32 29 29 32 29 32 23 10 0 19 26 26 23 23 23 23 16 13 16 26 26 29 19 16 10 10 10 10 3 6 13 13 13 13 16 16 13 10 6 0 3 3 0

GEFSMA_con_cape1000_318.txt.gz
Probability
61 65 65 58 61 65 58 58 52 55 55 52 39 29 26 26 23 29 19 45 52 48 39 29 35 32 26 26 26 26 23 19 32 32 35 26 26 29 16 23 13 26 26
65 61 61 65 68 65 61 58 61 61 55 52 48 45 32 35 32 42 35 39 52 42 45 29 32 29 29 26 26 23 35 29 35 39 29 26 23 26 19 16 23 29 23
65 61 61 71 68 68 68 65 65 58 55 48 48 42 35 35 42 42 39 35 29 39 35 32 42 29 35 32 26 29 35 35 42 42 32 29 29 32 35 32 35 32 32
55 71 65 65 68 61 61 65 61 61 55 48 48 45 48 48 48 48 42 42 39 29 26 35 35 42 39 32 26 29 39 39 39 32 32 32 29 29 26 26 32 32 29
61 61 55 65 65 61 65 45 61 52 48 48 48 48 45 48 48 45 45 42 45 35 29 32 42 42 35 35 29 29 35 39 39 35 35 32 35 32 29 29 29 29 26
58 55 52 65 65 58 65 61 55 52 48 45 35 32 45 45 45 52 52 48 45 39 35 35 39 35 45 42 39 35 35 35 35 35 35 35 39 35 35 35 29 29 26
65 61 45 55 55 65 65 58 58 45 42 45 42 39 35 35 39 45 45 42 39 35 42 35 39 35 29 39 42 42 42 39 35 39 39 39 42 39 32 32 29 32 26
55 52 58 48 48 55 65 55 52 48 45 39 52 42 42 35 35 32 45 35 32 32 39 39 42 39 35 32 26 35 42 35 39 39 35 35 35 29 32 32 32 32 29
55 55 55 52 52 52 52 48 42 52 45 42 52 52 52 39 32 32 39 35 42 39 42 35 42 42 39 39 35 32 39 35 39 39 39 39 32 32 32 29 29 26 26
55 55 52 52 52 52 52 45 42 55 52 52 52 52 52 52 42 35 29 23 39 45 48 35 39 42 35 42 35 35 26 19 26 26 26 32 29 29 32 26 26 23 26
58 52 52 52 55 55 55 52 48 58 58 52 52 52 52 52 52 45 35 39 39 39 42 42 35 42 42 42 45 29 23 16 13 19 23 26 32 35 26 23 23 26 26
58 52 52 58 55 55 58 58 52 55 55 55 52 52 52 52 52 55 42 39 35 39 39 45 42 45 42 39 42 26 19 16 10 6 10 16 19 26 26 19 19 19 26
52 58 48 55 58 61 61 61 61 58 55 48 52 52 52 52 52 55 52 45 45 42 52 45 48 48 39 48 39 26 16 10 3 3 6 6 16 13 16 26 23 19 19
45 58 61 61 58 52 52 58 55 55 55 55 48 48 48 42 45 45 48 45 42 39 42 42 39 42 42 52 32 29 23 6 3 3 3 6 6 6 10 13 10 16 19
42 55 58 55 55 55 55 65 65 61 55 52 52 48 42 39 45 42 52 48 45 39 35 42 35 32 35 39 26 26 35 19 3 3 3 3 3 3 6 0 0 3 10
61 58 52 48 52 48 58 61 58 58 58 52 52 45 48 42 42 42 45 52 48 39 32 32 39 35 45 23 19 39 39 23 16 6 3 3 3 3 0 0 0 0 0
61 61 58 55 45 42 48 52 42 42 42 45 42 42 45 52 48 42 45 42 42 39 32 32 35 39 39 45 32 42 32 29 23 10 6 3 3 3 0 0 0 0 0
52 55 55 55 45 35 42 42 42 42 42 42 39 39 35 32 39 42 42 39 42 35 32 29 32 32 42 39 32 32 26 23 26 16 6 3 3 0 0 0 0 0 0
52 48 48 52 48 45 48 42 39 42 39 35 32 35 35 32 32 29 32 35 39 32 32 32 32 35 35 32 26 26 23 26 16 16 10 6 3 0 0 0 0 0 0
58 52 45 45 42 42 42 42 39 35 42 35 35 32 35 35 35 35 29 32 35 32 29 29 26 26 32 29 26 26 29 29 23 16 13 10 3 0 0 0 0 0 0
42 48 48 52 48 39 42 39 42 35 29 32 32 32 32 29 29 26 29 32 32 29 29 29 23 23 23 23 26 29 26 29 29 13 13 13 6 3 3 0 0 0 0
52 55 48 45 42 29 23 23 23 32 29 32 35 35 32 29 26 23 16 16 16 26 26 26 19 19 23 23 26 23 26 19 16 16 16 13 6 6 10 13 3 0 0
52 58 52 48 45 39 23 16 13 23 32 32 32 35 29 26 26 26 23 23 13 10 13 19 19 23 23 26 23 23 23 19 10 6 13 10 13 10 10 10 3 0 0
48 55 48 42 39 32 23 16 10 13 23 32 32 32 35 32 26 26 26 23 23 26 23 19 16 19 23 19 23 19 19 16 13 16 13 10 10 10 10 3 3 0 0
42 42 39 35 35 32 13 13 6 19 26 23 29 29 35 35 26 19 23 29 26 26 23 16 16 13 13 16 16 13 16 13 10 10 16 13 10 10 10 10 3 0 0
45 39 32 32 29 35 10 10 3 13 26 26 29 32 16 23 13 10 13 23 23 26 23 19 19 13 10 13 13 10 10 10 6 10 10 10 10 10 10 6 3 0 0

GEFSMA_con_cape1000_324.txt.gz
Probability
10 10 13 13 10 10 16 16 10 16 13 13 16 16 10 13 10 6 10 39 48 52 48 39 26 23 26 26 23 35 35 26 35 32 26 29 29 32 32 23 26 19 26
13 13 16 10 6 10 16 13 10 10 6 13 13 13 10 13 10 10 3 23 42 48 45 39 32 32 29 26 29 35 35 39 42 42 39 29 26 29 26 16 16 16 19
6 13 6 3 10 13 13 10 3 6 3 3 3 3 6 3 3 10 3 6 13 32 45 42 42 42 35 35 35 35 29 39 42 39 42 32 26 23 26 29 26 29 29
16 13 6 6 6 6 10 3 3 3 3 3 3 6 6 6 6 6 6 6 6 10 19 45 39 42 42 35 39 39 35 39 39 39 39 39 35 29 29 26 29 26 23
10 6 3 10 13 13 10 13 6 6 3 3 0 10 6 10 10 6 6 6 6 6 6 26 45 52 45 35 35 39 42 35 35 35 35 39 42 32 32 32 29 23 23
13 10 10 19 16 16 6 10 6 6 3 6 6 6 6 6 3 3 6 6 6 6 6 10 13 23 39 39 35 45 42 39 45 39 32 32 35 39 32 29 23 26 29
19 16 16 13 13 16 19 13 10 6 3 3 3 6 3 3 6 6 6 6 6 6 10 10 6 6 13 32 39 45 42 48 45 39 39 45 42 39 39 29 29 29 29
23 32 19 16 19 16 13 13 10 10 6 3 6 3 6 6 6 10 6 10 6 6 13 13 10 10 10 10 13 32 45 45 42 42 39 42 45 42 39 35 32 29 29
23 19 19 23 23 26 23 13 13 13 13 10 6 10 10 6 3 3 10 6 6 3 0 0 6 13 10 13 13 16 35 39 42 42 35 39 35 35 32 32 29 26 26
16 16 13 19 19 19 16 23 16 16 19 19 19 10 10 10 6 6 3 3 6 3 0 3 3 0 10 10 16 13 16 26 35 39 35 39 42 29 26 26 29 29 26
19 13 13 13 16 19 13 13 16 16 16 23 10 13 16 10 6 13 13 3 3 0 6 3 0 0 6 13 16 16 19 19 19 26 32 42 39 32 32 29 29 32 23
16 23 16 16 16 16 16 16 13 13 13 16 23 19 19 16 10 10 10 6 3 10 6 6 3 3 13 16 16 19 16 13 10 13 16 26 26 29 29 26 26 26 23
23 23 23 16 16 16 23 19 19 26 29 26 23 23 19 16 19 13 13 13 6 6 6 6 6 6 10 6 10 13 13 10 6 6 10 13 13 19 29 29 26 26 19
19 19 23 19 19 23 23 19 26 29 23 23 23 26 26 26 16 16 16 16 10 6 6 6 6 6 6 6 10 10 10 6 6 6 3 3 6 10 6 10 16 16 13
23 23 23 23 26 26 26 19 19 26 23 29 29 29 32 29 23 16 13 16 16 16 6 6 6 6 6 6 6 10 3 3 3 3 3 3 3 3 3 3 3 3 3
19 23 23 23 23 23 23 19 19 19 26 23 29 32 26 23 23 23 16 13 13 13 13 6 6 6 6 13 6 6 6 3 3 3 3 3 3 3 3 3 3 0 0
23 23 23 19 16 16 23 19 23 23 26 26 19 16 13 19 19 19 19 19 16 16 19 13 10 13 16 13 13 6 6 6 10 10 3 3 3 0 0 0 0 0 0
19 16 16 16 16 19 19 23 23 26 26 19 16 16 19 23 23 19 26 26 26 26 23 19 13 13 13 13 10 6 13 13 10 13 10 6 6 0 0 0 0 0 0
26 23 16 13 13 16 23 26 19 19 19 13 16 19 23 23 23 23 23 23 23 23 23 23 19 16 16 13 10 10 13 10 10 10 10 10 6 3 0 0 0 0 0
19 13 6 13 16 23 23 19 19 16 10 10 13 13 16 23 23 23 23 23 19 16 16 16 19 10 13 13 13 6 6 6 6 6 10 10 10 6 0 0 0 0 0
16 16 10 13 16 19 16 19 19 13 13 10 10 10 16 19 23 23 19 19 16 13 16 16 16 16 10 10 10 10 10 10 6 6 6 3 3 6 6 6 0 0 0
19 19 26 19 19 19 19 19 13 10 13 13 10 13 13 13 13 13 6 10 13 10 13 16 16 13 16 10 10 13 13 13 13 6 6 3 6 6 6 3 3 3 0
23 26 26 19 16 16 16 13 13 3 10 10 10 13 13 10 10 10 10 10 10 10 6 10 10 10 10 13 10 10 10 10 13 6 6 6 6 6 6 6 6 3 0
19 16 19 16 16 13 6 6 3 6 6 10 10 10 10 10 10 6 6 6 6 6 6 6 10 10 10 10 3 10 10 10 10 6 3 3 3 3 3 3 6 3 0
19 23 13 10 6 6 3 0 0 3 3 6 6 3 3 3 0 0 3 3 6 6 6 6 6 6 6 6 0 0 0 10 6 6 3 3 3 3 3 3 3 3 0
23 13 13 10 10 10 3 0 0 0 0 3 3 3 3 3 3 0 0 3 3 3 3 3 3 6 6 6 3 0 0 10 6 6 3 3 3 3 3 0 0 0 0

GEFSMA_con_cape1000_330.txt.gz
Probability
3 3 3 3 3 3 3 3 6 3 10 13 16 16 16 16 16 16 13 16 42 48 39 45 35 39 39 29 26 26 26 23 26 29 26 29 32 39 32 32 23 23 26
3 3 6 6 6 3 3 3 6 6 6 10 10 6 10 13 16 13 10 10 23 32 48 39 45 39 32 35 32 23 23 23 35 32 29 32 32 32 32 29 19 16 19
6 3 6 6 6 6 6 6 6 6 6 6 6 10 6 13 10 10 6 10 10 13 29 45 45 39 39 35 35 35 23 26 29 35 29 35 35 29 29 26 23 19 16
10 6 10 16 6 3 3 3 6 6 3 3 3 3 3 6 6 10 10 10 10 10 19 29 48 48 45 42 39 42 35 32 29 35 39 39 35 32 35 29 32 29 19
6 3 3 6 3 3 3 6 6 3 3 3 3 0 3 3 6 6 6 10 3 3 13 13 29 48 45 42 42 45 42 39 35 39 39 35 35 39 39 32 35 29 23
3 3 6 3 3 3 3 6 3 3 3 3 3 3 3 3 3 3 3 3 3 6 3 6 16 29 29 39 42 42 39 42 42 42 39 32 35 42 42 35 32 26 29
16 13 10 6 6 10 6 6 6 3 3 0 3 3 6 6 3 6 6 3 6 6 3 3 3 3 3 19 32 35 35 39 39 42 42 39 42 48 42 42 39 39 35
13 13 10 10 6 10 10 6 6 6 3 3 3 3 6 6 6 3 6 10 6 3 6 6 10 10 3 10 10 23 39 45 42 48 48 42 35 35 42 42 42 32 29
16 16 19 13 13 10 10 10 6 10 10 3 3 10 10 10 6 6 3 10 3 3 3 6 6 13 13 19 19 13 26 39 48 48 48 39 42 39 35 42 42 35 29
13 16 13 13 13 13 13 10 10 10 13 13 10 6 10 10 13 10 6 6 6 10 3 3 3 6 10 13 19 10 10 13 19 35 42 35 39 42 39 35 39 39 35
6 6 13 13 10 10 13 13 13 10 10 10 10 13 16 10 13 10 13 13 13 10 10 10 6 6 3 6 13 10 6 6 6 10 23 29 35 35 32 32 32 29 32
6 10 13 13 13 13 13 10 13 13 13 16 19 16 19 19 13 13 13 13 13 10 6 6 6 6 6 6 6 6 13 6 6 3 10 13 13 29 32 29 29 29 29
16 13 13 13 13 13 13 13 13 16 16 23 23 26 23 19 19 13 16 16 13 6 6 6 6 6 6 6 6 6 10 6 6 3 3 3 6 10 16 19 23 26 26
13 16 16 16 16 19 19 13 13 16 19 16 16 23 23 26 23 19 19 13 13 10 10 10 6 6 6 6 6 6 6 6 6 3 3 3 3 3 3 10 16 19 19
13 16 16 16 16 16 16 16 16 16 13 13 19 23 23 23 23 26 23 19 26 19 16 10 13 13 13 6 6 6 6 6 6 6 3 3 3 3 3 3 6 6 10
13 16 16 13 13 13 16 16 10 13 13 16 19 23 19 19 16 23 23 19 19 19 16 19 16 16 16 16 10 13 10 6 6 6 3 3 3 3 0 0 3 3 0
13 16 10 13 13 13 13 10 10 16 13 16 16 16 19 16 16 16 19 26 23 19 19 23 19 19 16 16 16 16 16 13 13 6 3 3 3 0 0 0 0 0 0
13 10 6 6 6 6 6 10 13 13 13 16 16 13 10 13 13 16 19 19 23 23 23 19 19 19 19 16 13 13 13 13 13 6 3 3 0 0 0 0 0 0 0
10 6 6 3 6 6 6 6 10 10 16 16 16 13 10 10 10 10 13 16 16 16 19 19 16 16 13 10 13 10 10 10 6 6 3 3 0 0 0 0 0 0 0
16 16 13 13 16 6 6 6 6 6 13 13 13 6 10 10 10 10 10 10 10 16 13 10 10 10 16 10 13 13 10 10 6 6 6 6 6 3 3 0 0 0 0
19 13 19 19 13 13 10 10 10 13 13 10 10 6 6 6 6 6 6 10 6 6 6 6 6 10 10 10 13 13 10 6 6 10 10 10 6 6 6 3 3 0 0
19 19 16 16 16 10 6 6 6 16 13 13 10 6 6 10 10 3 3 3 3 6 6 6 6 6 10 10 6 6 13 10 13 13 10 10 10 6 6 6 3 0 0
16 13 10 10 10 13 6 3 3 6 6 6 10 6 6 6 3 3 3 3 3 3 6 6 6 6 6 6 6 6 6 6 10 13 10 10 10 10 10 6 0 0 0
10 6 3 6 6 6 3 0 0 3 3 3 0 3 0 0 0 0 0 0 0 0 0 6 6 6 6 6 6 6 6 10 10 16 10 10 10 6 6 6 3 0 0
3 3 3 3 6 6 3 0 0 3 3 3 0 0 0 0 0 0 0 0 0 0 0 0 3 3 3 3 3 3 3 3 0 0 13 6 10 10 6 6 3 0 0
6 6 6 3 6 10 3 3 0 3 3 0 0 0 0 0 0 0 0 0 0 0 0 0 0 0 3 3 0 3 3 3 3 3 3 6 6 10 6 3 3 3 3

GEFSMA_con_cape1000_336.txt.gz
Probability
58 45 61 65 45 42 39 42 32 32 29 26 19 16 16 19 23 29 26 26 29 32 39 39 39 39 39 42 32 29 32 32 35 35 23 23 29 32 45 39 32 26 23
55 55 55 58 48 45 45 39 26 35 39 35 32 29 32 29 29 32 32 29 29 23 26 35 35 39 42 39 39 32 32 32 32 35 29 26 32 29 35 32 26 26 23
55 48 52 55 52 48 48 39 29 35 39 29 29 32 29 32 29 32 39 32 35 29 29 26 45 48 52 42 39 35 35 39 29 32 35 32 39 29 26 23 29 32 26
58 65 58 55 61 48 52 39 42 39 35 32 35 32 29 42 39 35 32 35 42 26 29 29 42 48 45 52 39 42 39 35 29 32 29 29 29 29 29 29 26 29 32
52 48 55 58 61 52 52 39 42 45 42 42 35 39 32 35 39 29 23 23 35 42 45 45 39 39 45 42 45 42 42 39 32 29 35 32 29 29 32 32 29 29 29
52 58 55 65 52 48 55 52 52 55 48 55 19 16 23 32 35 32 32 26 35 42 29 32 42 52 55 52 39 39 35 35 35 35 42 32 29 32 32 32 26 26 26
55 65 58 61 58 52 58 52 48 35 42 48 32 29 29 26 29 32 35 35 29 32 39 42 45 52 52 42 35 35 39 39 39 45 42 48 42 42 26 29 29 32 32
55 39 61 61 52 61 55 58 48 42 39 45 52 29 19 26 32 10 26 32 32 42 39 35 42 52 52 52 39 26 35 39 42 45 45 52 48 48 39 39 35 35 35
52 52 52 58 58 52 55 61 58 55 45 48 48 45 23 19 16 16 26 19 29 39 29 26 32 45 42 48 52 23 26 23 32 35 42 45 42 39 42 45 35 35 32
48 42 45 55 68 52 58 42 42 48 52 45 45 52 45 42 29 23 19 16 16 29 29 23 23 32 35 39 35 32 19 23 29 29 39 42 35 39 42 42 42 39 39
42 39 39 52 58 45 52 48 45 48 48 45 42 39 39 42 32 29 32 26 19 16 23 26 32 29 32 39 48 32 16 13 13 19 23 26 29 35 35 42 39 35 35
42 35 35 42 39 39 48 45 48 45 48 55 48 45 39 32 35 29 26 35 32 23 23 32 35 35 32 29 26 10 10 10 6 6 13 16 19 16 19 19 26 29 29
35 48 39 39 35 39 42 42 45 45 45 48 45 42 39 42 39 32 35 29 32 26 26 23 29 29 39 32 35 13 6 6 6 6 6 3 6 6 10 13 16 23 23
35 39 42 42 39 32 32 35 32 35 35 42 39 39 39 39 39 29 32 29 29 23 23 19 26 23 29 35 35 10 26 6 6 6 6 3 3 6 6 6 13 13 10
45 39 48 39 42 35 29 32 35 32 35 35 35 39 42 39 32 35 39 26 23 26 23 23 23 23 23 32 29 26 35 19 6 6 3 3 3 3 3 3 6 6 6
48 42 39 39 35 32 32 35 29 32 32 39 35 39 35 23 35 29 26 26 23 23 19 23 29 23 29 19 26 23 23 19 6 3 3 3 3 3 3 3 3 3 3
52 48 45 42 39 39 35 39 29 35 32 29 29 26 29 29 32 26 23 23 26 23 19 19 23 29 29 32 32 32 32 29 16 3 3 0 0 0 0 0 0 0 3
52 52 48 48 45 35 35 32 29 29 35 35 32 29 29 29 35 32 32 26 23 23 16 19 16 16 19 23 23 29 23 16 19 10 3 0 0 0 0 0 0 0 0
52 48 48 48 45 39 35 35 32 35 32 35 35 23 23 23 35 35 26 23 19 16 23 16 13 16 13 16 23 23 13 29 16 13 10 3 0 0 0 0 0 0 0
52 45 48 45 42 39 39 39 42 39 35 35 32 26 26 23 23 19 23 23 19 19 16 16 13 13 16 16 16 16 16 19 13 16 10 10 6 0 0 0 0 0 0
42 45 42 42 39 39 32 35 42 39 39 32 29 32 26 19 16 16 13 16 13 6 6 10 13 10 13 13 13 13 6 10 19 13 16 19 13 16 16 3 0 0 0
42 39 32 35 32 23 10 6 13 35 35 35 39 29 23 19 16 6 3 3 10 10 6 3 3 6 13 13 16 10 6 6 6 6 6 13 19 13 16 13 13 6 0
42 42 35 35 35 26 10 3 3 16 29 29 29 32 19 10 13 19 6 0 0 0 3 6 3 3 10 6 19 10 16 13 13 6 10 10 10 13 13 13 6 3 0
39 35 32 26 23 23 6 3 3 16 23 23 26 35 32 29 13 13 16 13 13 13 6 10 13 13 13 16 23 13 13 13 13 13 13 13 10 10 10 13 3 3 0
32 26 26 23 19 19 3 3 3 13 23 19 23 16 26 29 3 3 3 16 13 10 0 0 0 0 0 0 0 3 10 10 3 6 3 3 6 6 6 10 6 0 0
29 26 19 19 23 19 6 3 3 16 16 13 16 13 6 6 3 0 3 6 6 3 10 3 0 0 0 0 0 0 10 6 6 3 6 3 0 3 3 6 6 6 0

GEFSMA_con_cape1000_342.txt.gz
Probability
71 65 68 68 61 61 61 61 55 48 52 39 26 23 16 19 19 23 39 55 48 35 35 39 39 35 39 32 35 32 35 35 35 39 39 35 35 35 32 32 39 32 35
71 68 71 68 65 65 61 58 61 58 52 52 35 39 35 29 26 32 29 42 55 45 45 45 42 35 42 39 42 45 42 45 39 42 42 45 45 39 39 32 39 42 45
71 68 65 74 71 68 68 61 58 61 58 55 48 48 45 45 39 39 42 39 45 52 52 45 45 48 55 45 52 55 48 45 39 45 42 45 42 45 32 35 39 39 32
71 74 65 58 71 65 74 65 55 52 61 58 55 48 48 48 39 48 42 45 48 35 45 52 55 55 58 55 55 55 52 42 39 42 45 39 39 35 32 29 32 35 29
61 58 65 65 68 65 65 61 68 65 61 55 48 48 55 55 55 39 42 48 48 52 42 52 65 65 58 52 58 48 48 48 39 39 45 42 42 42 32 32 26 32 32
58 58 65 74 68 71 71 71 68 68 61 65 29 42 52 52 45 45 42 42 52 52 45 42 48 52 61 65 58 55 42 48 39 35 35 39 35 42 45 39 29 26 29
61 58 55 77 68 65 65 65 61 61 68 65 61 58 55 48 52 52 52 52 52 45 52 58 55 39 42 48 52 55 39 42 42 35 39 42 45 42 42 45 39 26 29
65 52 68 68 65 65 65 65 65 71 58 58 65 58 58 42 45 32 52 52 48 48 42 39 45 45 48 39 29 35 45 39 39 35 35 45 42 42 39 35 35 32 26
58 61 65 65 71 65 65 65 65 61 58 58 55 55 52 45 52 48 48 48 42 45 35 35 45 45 45 39 42 39 42 45 42 45 39 39 39 32 35 42 39 42 35
55 58 61 55 61 61 68 65 65 58 55 52 52 48 45 55 48 45 45 48 45 45 35 32 29 39 42 35 42 32 39 29 32 35 39 35 39 29 29 39 35 42 35
65 58 52 55 58 58 61 61 58 55 52 48 48 45 45 48 48 48 45 39 32 35 39 39 35 39 35 35 42 39 29 23 16 19 29 29 32 35 29 39 29 32 35
68 61 58 58 65 65 65 58 55 65 58 48 48 45 42 42 39 39 35 35 35 35 39 35 39 35 42 39 32 23 19 13 6 10 13 13 23 23 23 23 29 29 26
58 61 55 68 65 65 61 68 65 61 58 52 52 45 45 42 35 39 35 29 29 32 32 35 35 35 29 32 29 26 19 13 3 3 6 10 10 10 13 13 16 13 19
52 58 61 65 65 65 52 58 55 55 52 48 39 48 48 35 35 35 35 32 19 19 23 29 29 29 26 32 26 23 16 10 3 3 3 3 6 6 10 10 10 6 10
55 58 55 58 55 55 52 58 55 48 55 52 52 45 42 42 45 39 39 29 29 23 16 16 19 26 26 26 19 16 19 13 3 3 3 3 3 3 3 3 6 6 6
61 58 52 52 55 55 52 52 52 45 48 52 58 45 42 32 32 35 32 32 26 23 16 16 13 13 23 19 19 26 23 13 10 0 0 0 3 3 3 3 3 3 3
58 58 55 55 55 55 55 48 45 45 45 42 42 45 39 45 35 35 39 32 32 26 19 13 16 13 19 19 16 19 19 19 16 6 0 0 0 0 3 3 3 3 3
61 52 58 55 55 55 55 48 45 45 39 39 39 45 35 32 29 32 35 29 26 26 16 16 19 19 16 19 23 19 13 13 16 10 3 0 0 0 0 0 0 0 0
52 52 48 55 55 48 52 48 45 45 39 42 39 39 35 35 32 32 32 32 29 23 16 13 13 19 16 13 19 13 13 13 13 13 3 0 0 0 0 0 0 0 0
52 52 52 48 48 45 48 42 39 45 35 35 39 39 39 35 35 35 29 32 23 19 16 10 13 10 13 19 13 6 13 19 19 10 10 3 0 0 0 0 0 0 0
48 52 45 45 42 35 29 32 32 32 32 32 32 35 26 29 26 26 16 19 23 19 16 13 3 3 10 13 10 6 6 13 16 13 16 6 3 10 3 0 0 0 0
45 45 42 42 39 26 19 19 23 29 32 32 29 32 29 29 23 10 10 10 13 19 13 13 10 6 10 13 13 10 3 10 6 10 6 6 3 6 13 16 3 0 0
42 45 45 42 39 23 19 10 10 23 26 29 29 29 23 16 19 13 6 6 6 10 10 10 13 16 10 10 13 6 10 6 6 6 10 6 6 3 6 3 3 0 0
39 39 39 35 35 23 10 3 3 16 23 23 23 23 26 23 10 10 6 10 10 10 0 6 10 13 6 6 6 6 6 6 6 6 3 3 3 6 3 0 0 0 0
39 39 39 39 35 26 10 3 3 16 23 23 23 19 19 16 10 6 10 10 6 6 3 0 3 0 0 0 0 0 3 3 3 0 3 0 3 3 6 3 0 0 0
42 42 35 35 32 29 6 3 3 10 16 19 23 16 13 10 6 6 6 13 13 13 6 3 0 0 0 0 0 0 0 0 3 3 0 3 3 3 6 6 3 0 0

GEFSMA_con_cape1000_348.txt.gz
Probability
19 19 16 16 23 19 13 10 10 10 6 10 6 6 6 10 6 3 10 35 35 42 42 52 52 35 35 29 35 39 39 35 39 35 35 32 29 32 39 35 39 42 35
19 13 13 13 16 19 16 16 10 13 6 6 6 6 6 3 6 6 6 23 39 42 52 48 52 45 48 45 42 42 35 35 42 39 39 29 29 32 26 29 32 42 45
19 16 10 16 13 13 16 13 13 13 13 6 6 6 3 6 10 6 6 3 13 42 52 52 52 55 61 58 58 55 45 52 48 45 45 45 35 35 32 26 35 39 45
13 16 10 13 16 16 13 16 13 13 13 10 3 3 3 6 6 6 10 3 3 13 29 42 61 65 61 55 48 48 55 58 48 42 42 39 42 39 35 35 35 39 42
16 13 16 16 16 16 16 16 16 16 19 10 10 3 3 6 6 6 6 6 6 6 6 19 55 52 58 55 52 55 58 61 48 45 42 39 42 45 42 39 42 35 32
23 16 16 16 19 13 10 13 19 16 16 13 16 10 13 13 10 6 6 6 10 6 6 3 13 32 58 58 52 48 45 48 48 42 39 39 39 42 42 35 32 35 32
26 19 23 23 23 19 16 13 19 19 19 16 13 6 6 10 10 13 10 10 6 6 3 6 6 10 13 52 48 52 48 48 45 42 42 45 45 42 48 35 35 35 32
26 23 23 26 29 23 23 19 23 19 13 19 16 10 3 6 10 6 6 6 6 6 6 10 3 6 6 16 19 35 45 42 42 42 42 42 35 39 39 32 35 32 29
26 26 19 26 29 32 29 29 26 19 19 16 13 10 3 3 10 6 3 3 6 6 6 10 6 3 6 6 10 19 32 35 39 39 42 39 42 39 39 39 35 32 32
23 23 26 29 26 32 29 29 26 19 19 16 16 3 3 6 10 6 0 0 6 6 6 6 10 6 10 13 10 13 23 32 32 29 32 39 42 39 35 35 29 35 39
23 23 23 29 32 32 32 29 26 23 19 16 19 16 10 6 6 6 0 0 0 0 0 3 3 3 6 10 13 10 10 16 19 26 26 35 35 35 32 35 39 42 42
19 19 26 26 32 35 32 29 23 29 23 19 16 16 13 6 6 3 0 0 0 0 0 0 0 3 10 10 19 16 16 13 3 6 19 26 29 29 29 29 29 35 32
29 29 29 26 26 29 29 23 26 23 26 26 23 19 16 13 13 3 6 0 0 0 0 0 0 0 3 3 6 16 16 6 3 3 3 10 16 26 23 23 23 26 29
26 26 26 26 32 32 29 26 16 16 23 26 26 23 19 23 19 13 13 10 6 0 0 0 0 0 0 3 6 13 13 6 3 3 3 3 3 6 6 10 13 16 16
32 32 32 32 32 29 29 26 19 19 19 23 26 23 19 23 23 19 13 10 10 6 3 0 0 3 0 0 0 3 6 3 3 3 0 0 3 3 3 3 6 6 6
29 29 29 26 26 23 29 29 26 23 23 26 26 23 19 19 16 16 10 10 13 10 3 3 0 3 3 3 0 0 3 3 0 0 0 0 0 3 3 3 3 3 3
26 26 29 26 26 23 23 23 19 16 19 23 23 23 19 16 16 16 13 10 10 10 10 6 0 3 6 6 6 3 0 3 3 0 0 0 0 0 0 3 3 3 3
29 29 32 32 29 29 26 23 23 16 16 13 23 23 19 19 16 13 13 13 10 6 3 3 3 3 3 3 6 6 6 6 3 3 3 0 0 0 0 0 0 0 0
29 29 32 23 26 29 26 29 26 16 16 16 23 23 23 16 13 10 13 13 10 6 3 3 3 3 3 0 0 0 3 0 0 3 3 3 0 0 0 0 0 0 0
23 26 29 26 26 29 29 29 23 19 13 13 16 23 23 19 16 10 13 13 10 6 3 3 3 3 3 0 0 0 0 0 0 3 3 3 3 0 0 0 0 0 0
19 19 23 19 19 26 26 23 19 13 13 19 13 13 13 16 16 13 10 10 10 6 6 3 3 0 0 0 0 0 0 0 0 3 3 3 3 3 0 0 0 0 0
23 19 19 19 23 26 19 19 19 13 10 10 6 10 6 13 10 10 3 3 6 6 6 6 0 0 0 0 0 0 0 0 0 0 3 3 3 3 0 0 0 0 0
23 23 19 16 23 19 10 6 3 6 3 6 6 6 6 6 3 3 3 3 6 6 3 3 3 0 0 0 0 0 0 0 0 0 0 0 0 0 0 0 0 0 0
19 23 23 13 13 10 10 6 3 3 3 3 3 6 6 3 3 3 3 3 6 6 3 3 3 3 0 0 0 0 0 0 0 0 0 0 0 0 0 0 0 0 0
19 23 23 16 10 6 10 6 3 6 10 6 3 3 3 6 3 3 3 3 3 6 3 3 3 3 0 0 0 0 0 0 0 0 0 0 0 0 0 0 0 0 0
13 19 19 16 13 6 10 6 3 6 10 6 3 3 3 3 3 3 3 3 3 3 3 3 3 0 0 0 0 0 0 0 0 0 0 0 0 0 0 0 0 0 0

GEFSMA_con_cape1000_354.txt.gz
Probability
6 10 6 10 6 10 10 13 13 10 13 10 10 10 13 13 16 16 16 29 48 52 42 39 35 39 35 29 29 35 32 35 35 29 23 23 26 29 35 32 35 29 29
6 10 10 6 6 10 10 10 13 13 3 10 10 10 16 16 13 13 16 23 35 35 35 45 45 48 45 45 42 42 35 42 35 39 29 29 26 26 29 29 35 29 29
6 3 13 6 6 6 6 10 10 6 3 6 10 6 10 10 13 10 6 6 16 26 39 32 39 48 58 55 58 52 42 45 42 39 39 39 39 35 32 35 35 32 32
6 3 6 13 6 6 6 10 10 10 10 10 10 10 10 13 13 10 13 10 13 13 13 29 39 45 48 48 48 58 52 48 45 42 39 42 42 39 39 39 35 32 32
13 10 10 6 3 10 10 10 10 10 13 13 16 13 13 13 13 10 10 10 6 6 6 16 29 48 48 52 55 58 55 52 48 48 45 48 42 42 29 39 39 29 26
16 10 10 10 10 6 6 10 13 16 13 16 23 19 16 13 6 6 6 6 6 6 3 3 6 26 39 48 55 55 48 52 48 52 45 42 39 39 35 29 39 32 32
13 10 16 13 10 10 6 10 16 16 16 16 16 19 16 6 6 6 6 3 3 3 3 0 0 3 10 29 35 39 42 39 42 45 48 45 39 35 32 32 29 35 39
13 16 10 13 6 10 6 10 19 19 19 16 13 10 10 6 6 6 10 10 0 3 3 3 6 3 3 6 19 23 32 35 32 39 42 45 42 35 29 29 39 42 35
19 19 16 6 6 10 10 16 19 19 19 13 10 10 6 6 6 6 6 6 3 10 10 10 13 13 10 10 19 16 26 29 32 35 32 32 42 35 32 35 35 35 35
23 23 19 13 10 13 10 13 23 19 19 16 10 10 10 6 13 13 6 3 0 3 3 10 10 10 6 10 16 10 6 16 26 26 29 29 29 35 32 35 35 35 29
13 13 13 13 13 13 13 13 23 19 19 16 13 10 10 10 10 13 10 10 3 3 3 3 6 6 10 10 13 10 10 10 6 19 26 23 26 29 29 29 32 39 39
13 13 13 13 10 13 13 16 23 26 19 19 19 10 10 13 10 10 13 10 10 6 3 3 0 3 3 6 6 6 6 6 6 6 6 19 23 29 29 26 26 26 29
13 13 13 13 13 13 13 13 19 23 19 23 23 19 13 10 10 6 13 16 6 6 3 3 0 0 0 3 10 10 6 3 3 3 3 3 13 26 26 26 29 26 26
13 13 13 13 10 10 13 13 13 13 13 16 26 26 23 23 13 10 13 16 13 6 6 3 3 0 0 0 6 3 13 3 0 0 0 3 3 6 6 10 13 16 13
10 16 16 13 13 13 23 23 16 13 10 13 13 23 23 26 23 23 16 16 13 13 6 3 3 3 0 0 0 6 6 0 0 0 0 0 0 3 3 3 3 3 3
13 13 23 23 19 19 19 19 19 13 13 19 16 16 19 19 19 19 13 13 13 16 13 6 3 3 3 0 0 3 6 0 0 0 0 0 0 0 0 3 3 3 3
16 23 23 19 16 19 16 16 19 16 19 19 16 16 19 16 16 13 13 6 10 10 13 6 3 3 3 3 6 3 3 6 6 0 0 0 0 0 0 0 0 0 3
10 10 16 13 10 16 10 10 13 16 16 16 13 10 16 13 16 13 6 6 6 6 6 3 3 3 3 3 3 3 3 3 3 0 0 0 0 0 0 0 0 0 0
13 13 16 10 10 13 16 13 13 16 19 16 13 10 13 13 16 13 10 10 10 6 3 3 3 3 3 3 3 3 3 0 0 0 0 0 0 0 0 0 0 0 0
16 13 13 13 13 16 16 16 13 16 19 16 16 16 13 10 10 10 6 10 10 6 3 3 3 3 3 3 3 3 0 0 0 0 0 0 0 0 0 0 0 0 0
16 16 13 16 16 16 13 13 13 16 16 13 10 10 10 10 6 10 10 10 6 6 6 6 6 3 3 3 0 0 0 0 0 0 0 0 0 3 3 0 0 0 0
16 16 13 16 16 13 10 10 10 13 10 10 10 10 10 6 6 6 0 3 3 3 6 6 6 6 6 3 3 0 0 0 0 0 0 0 0 0 0 0 0 0 0
16 19 19 13 10 10 3 3 3 3 6 6 6 10 10 10 6 6 6 3 3 3 3 3 6 6 6 6 0 0 0 0 0 0 0 0 0 0 0 0 0 0 0
16 16 19 16 10 6 0 0 0 0 3 3 6 10 10 10 10 6 6 6 3 3 3 3 3 3 3 3 3 0 0 0 0 0 0 0 0 0 0 0 0 0 0
13 13 16 13 10 0 0 0 0 0 3 6 6 6 10 10 10 0 3 3 3 3 3 3 3 3 3 3 3 0 0 0 0 0 0 0 0 0 0 0 0 0 0
10 6 6 6 3 3 0 0 0 0 6 6 6 6 10 10 10 0 3 3 3 3 3 3 3 3 3 3 0 0 0 0 0 0 0 0 0 0 0 0 0 0 0